星链-35538(STARLINK-35538)

导读 | 豆包AI

STARLINK-35538是美国SpaceX星链互联网星座的成员,于2025年11月15日在美国发射入轨。星链项目旨在通过近地轨道卫星群,为全球提供高速低成本宽带互联网服务,这颗卫星延续星链技术路线,承担对地互联网信号转发任务,助力星链全球覆盖网络的持续扩建。

基本信息
目录编号:
66475
目录名称:
STARLINK-35538
国际标识:
2025-262V
轨道中心:
EARTH
卫星名称:
星链-35538
卫星全名:
星链-35538(STARLINK-35538)
卫星状态:
在轨 (已飞行165 天)
发射日期:
2025-11-15 UTC
国别 :
美国 (US)
星等 :
--
轨道信息
数据来源 国际轨道数据
星历时间: 2026-04-29T07:24:36+0800
5小时前
查看轨道信息
半长轴: 6861.167km
偏心率: 0.0001636
轨道倾角: 43.002°
近地点辐角 260.598°
升交点赤经 12.464°
平近点角 99.469°
近地点: 481.907km
远地点: 484.153km
周期: 94.266分钟
每日圈数: 15.275864
详细信息
固有亮度:
5
最大亮度:
2.5
卫星平台:
Starlink V1.0
覆盖范围:
全球
运营商:
太空探索技术公司
运营商所在国:
美国
制造商(研发单位):
太空探索技术公司
制造商所在国:
美国
使用方式:
暂无
卫星简介
Starlink 计划是 SpaceX 推出的全球卫星互联网项目,通过发射低轨道卫星,为全球尤其是偏远地区提供高速、低延迟的互联网服务。自 2019 年起,Starlink 已部署数千颗卫星,旨在缩小全球数字鸿沟,推动互联网普及。该项目还为军事、航空等行业提供通信支持,带来广泛经济效益。
2D轨道图
3D轨道图
轨道高度分析图
轨道倾角分析图
轨道综合分析图
查看轨道综合分析图